Time,TemperatureF,DewpointF,PressureIn,WindDirection,WindDirectionDegrees,WindSpeedMPH,WindSpeedGustMPH,Humidity,HourlyPrecipIn,Conditions,Clouds,dailyrainin,SoftwareType,DateUTC
2013-11-27 00:13:00,16.6,11.0,30.44,SE,142,0.0,1.0,80,0.00,,,0.00,weatherlink.com 1.10,2013-11-27 07:13:00,
2013-11-27 00:28:00,16.6,11.0,30.44,SE,142,0.0,1.0,78,0.00,,,0.00,weatherlink.com 1.10,2013-11-27 07:28:00,
2013-11-27 00:43:00,15.9,11.0,30.44,SE,142,0.0,2.0,80,0.00,,,0.00,weatherlink.com 1.10,2013-11-27 07:43:00,
2013-11-27 00:58:00,15.8,11.0,30.43,SE,142,0.0,1.0,80,0.00,,,0.00,weatherlink.com 1.10,2013-11-27 07:58:00,
2013-11-27 01:13:00,15.8,11.0,30.43,SE,142,0.0,1.0,80,0.00,,,0.00,weatherlink.com 1.10,2013-11-27 08:13:00,
2013-11-27 01:28:00,16.7,11.0,30.43,SE,142,1.0,1.0,79,0.00,,,0.00,weatherlink.com 1.10,2013-11-27 08:28:00,
2013-11-27 01:43:00,19.4,12.0,30.43,SE,142,0.0,1.0,72,0.00,,,0.00,weatherlink.com 1.10,2013-11-27 08:43:00,
2013-11-27 01:58:00,18.9,11.0,30.43,SE,142,1.0,2.0,72,0.00,,,0.00,weatherlink.com 1.10,2013-11-27 08:58:00,
2013-11-27 02:13:00,17.7,11.0,30.42,SE,142,1.0,1.0,75,0.00,,,0.00,weatherlink.com 1.10,2013-11-27 09:13:00,
2013-11-27 02:28:00,17.7,11.0,30.42,SE,142,1.0,2.0,76,0.00,,,0.00,weatherlink.com 1.10,2013-11-27 09:28:00,
2013-11-27 02:43:00,17.7,12.0,30.41,SE,142,1.0,1.0,77,0.00,,,0.00,weatherlink.com 1.10,2013-11-27 09:43:00,
2013-11-27 02:59:00,17.3,11.0,30.40,SE,142,0.0,1.0,77,0.00,,,0.00,weatherlink.com 1.10,2013-11-27 09:59:00,
2013-11-27 03:14:00,17.1,11.0,30.40,SE,142,0.0,1.0,78,0.00,,,0.00,weatherlink.com 1.10,2013-11-27 10:14:00,
2013-11-27 03:29:00,16.4,12.0,30.40,SE,142,0.0,1.0,81,0.00,,,0.00,weatherlink.com 1.10,2013-11-27 10:29:00,
2013-11-27 03:44:00,16.6,12.0,30.40,SE,142,0.0,2.0,81,0.00,,,0.00,weatherlink.com 1.10,2013-11-27 10:44:00,
2013-11-27 03:59:00,16.6,12.0,30.40,SE,142,0.0,1.0,81,0.00,,,0.00,weatherlink.com 1.10,2013-11-27 10:59:00,
2013-11-27 04:14:00,17.0,12.0,30.40,SE,142,0.0,2.0,82,0.00,,,0.00,weatherlink.com 1.10,2013-11-27 11:14:00,
2013-11-27 04:29:00,20.1,13.0,30.40,SE,142,0.0,2.0,74,0.00,,,0.00,weatherlink.com 1.10,2013-11-27 11:29:00,
2013-11-27 04:44:00,24.6,14.0,30.40,SE,142,0.0,2.0,63,0.00,,,0.00,weatherlink.com 1.10,2013-11-27 11:44:00,
2013-11-27 04:59:00,26.1,14.0,30.39,SE,142,0.0,2.0,60,0.00,,,0.00,weatherlink.com 1.10,2013-11-27 11:59:00,
2013-11-27 05:14:00,22.7,13.0,30.39,SE,142,0.0,2.0,66,0.00,,,0.00,weatherlink.com 1.10,2013-11-27 12:14:00,
2013-11-27 05:29:00,20.0,13.0,30.39,SE,142,0.0,2.0,73,0.00,,,0.00,weatherlink.com 1.10,2013-11-27 12:29:00,
2013-11-27 05:44:00,19.6,13.0,30.39,SE,142,0.0,1.0,74,0.00,,,0.00,weatherlink.com 1.10,2013-11-27 12:44:00,
2013-11-27 05:59:00,19.6,13.0,30.38,SE,142,0.0,2.0,74,0.00,,,0.00,weatherlink.com 1.10,2013-11-27 12:59:00,
2013-11-27 06:14:00,20.9,13.0,30.38,SE,142,0.0,1.0,72,0.00,,,0.00,weatherlink.com 1.10,2013-11-27 13:14:00,
2013-11-27 06:29:00,20.1,13.0,30.38,SE,142,0.0,1.0,74,0.00,,,0.00,weatherlink.com 1.10,2013-11-27 13:29:00,
2013-11-27 06:44:00,21.2,13.0,30.38,SE,142,1.0,2.0,72,0.00,,,0.00,weatherlink.com 1.10,2013-11-27 13:44:00,
2013-11-27 06:59:00,20.6,14.0,30.38,SE,142,0.0,2.0,74,0.00,,,0.00,weatherlink.com 1.10,2013-11-27 13:59:00,
2013-11-27 07:14:00,19.7,13.0,30.37,SE,142,2.0,2.0,76,0.00,,,0.00,weatherlink.com 1.10,2013-11-27 14:14:00,
2013-11-27 07:29:00,21.2,13.0,30.37,SE,142,0.0,2.0,72,0.00,,,0.00,weatherlink.com 1.10,2013-11-27 14:29:00,
2013-11-27 07:44:00,22.3,14.0,30.37,SE,142,0.0,1.0,70,0.00,,,0.00,weatherlink.com 1.10,2013-11-27 14:44:00,
2013-11-27 07:59:00,27.8,15.0,30.37,SE,142,2.0,3.0,59,0.00,,,0.00,weatherlink.com 1.10,2013-11-27 14:59:00,
2013-11-27 08:14:00,31.3,15.0,30.36,SE,142,0.0,2.0,52,0.00,,,0.00,weatherlink.com 1.10,2013-11-27 15:14:00,
2013-11-27 08:29:00,39.3,15.0,30.35,SE,142,1.0,3.0,37,0.00,,,0.00,weatherlink.com 1.10,2013-11-27 15:29:00,
2013-11-27 08:44:00,41.1,16.0,30.34,SE,142,1.0,4.0,36,0.00,,,0.00,weatherlink.com 1.10,2013-11-27 15:44:00,
2013-11-27 08:59:00,43.2,18.0,30.34,SE,142,0.0,5.0,36,0.00,,,0.00,weatherlink.com 1.10,2013-11-27 15:59:00,
2013-11-27 09:14:00,45.7,14.0,30.34,SE,142,0.0,7.0,28,0.00,,,0.00,weatherlink.com 1.10,2013-11-27 16:14:00,
2013-11-27 09:29:00,47.3,13.0,30.34,SE,142,2.0,6.0,25,0.00,,,0.00,weatherlink.com 1.10,2013-11-27 16:29:00,
2013-11-27 09:44:00,48.0,12.0,30.33,SE,142,1.0,7.0,23,0.00,,,0.00,weatherlink.com 1.10,2013-11-27 16:44:00,
2013-11-27 09:59:00,49.0,14.0,30.32,SE,142,0.0,4.0,25,0.01,,,0.01,weatherlink.com 1.10,2013-11-27 16:59:00,
2013-11-27 10:15:00,49.5,13.0,30.32,SE,142,1.0,5.0,23,0.02,,,0.02,weatherlink.com 1.10,2013-11-27 17:15:00,
2013-11-27 10:30:00,49.5,12.0,30.31,SE,142,2.0,5.0,22,0.02,,,0.02,weatherlink.com 1.10,2013-11-27 17:30:00,
2013-11-27 10:45:00,50.8,12.0,30.31,SE,142,1.0,4.0,21,0.03,,,0.03,weatherlink.com 1.10,2013-11-27 17:45:00,
2013-11-27 11:00:00,50.5,13.0,30.30,SE,142,5.0,7.0,22,0.03,,,0.04,weatherlink.com 1.10,2013-11-27 18:00:00,
2013-11-27 11:15:00,49.7,14.0,30.29,SE,142,3.0,9.0,24,0.02,,,0.04,weatherlink.com 1.10,2013-11-27 18:15:00,
2013-11-27 11:30:00,49.5,15.0,30.28,SE,142,4.0,6.0,25,0.03,,,0.05,weatherlink.com 1.10,2013-11-27 18:30:00,
2013-11-27 11:45:00,49.0,15.0,30.27,SE,142,3.0,8.0,26,0.03,,,0.06,weatherlink.com 1.10,2013-11-27 18:45:00,
2013-11-27 12:00:00,47.8,15.0,30.27,SE,143,3.0,14.0,27,0.03,,,0.07,weatherlink.com 1.10,2013-11-27 19:00:00,
2013-11-27 12:15:00,48.2,14.0,30.27,SE,143,5.0,8.0,25,0.02,,,0.07,weatherlink.com 1.10,2013-11-27 19:15:00,
2013-11-27 12:30:00,47.1,15.0,30.27,SE,143,2.0,7.0,28,0.03,,,0.08,weatherlink.com 1.10,2013-11-27 19:30:00,
2013-11-27 12:45:00,46.1,15.0,30.26,SE,143,3.0,10.0,29,0.02,,,0.08,weatherlink.com 1.10,2013-11-27 19:45:00,
2013-11-27 13:00:00,46.2,15.0,30.26,SE,143,1.0,8.0,28,0.01,,,0.08,weatherlink.com 1.10,2013-11-27 20:00:00,
2013-11-27 13:15:00,45.6,16.0,30.25,SE,143,0.0,7.0,30,0.02,,,0.09,weatherlink.com 1.10,2013-11-27 20:15:00,
2013-11-27 13:30:00,45.0,17.0,30.26,SE,143,2.0,8.0,32,0.01,,,0.09,weatherlink.com 1.10,2013-11-27 20:30:00,
2013-11-27 13:45:00,44.9,16.0,30.25,SE,143,1.0,6.0,31,0.01,,,0.09,weatherlink.com 1.10,2013-11-27 20:45:00,
2013-11-27 14:00:00,44.8,17.0,30.25,SE,143,3.0,8.0,33,0.01,,,0.09,weatherlink.com 1.10,2013-11-27 21:00:00,
2013-11-27 14:15:00,45.5,16.0,30.24,SE,143,0.0,5.0,30,0.00,,,0.09,weatherlink.com 1.10,2013-11-27 21:15:00,
2013-11-27 14:30:00,45.6,19.0,30.24,SE,143,1.0,3.0,34,0.00,,,0.09,weatherlink.com 1.10,2013-11-27 21:30:00,
2013-11-27 14:45:00,44.4,16.0,30.25,SE,143,0.0,4.0,32,0.00,,,0.09,weatherlink.com 1.10,2013-11-27 21:45:00,
2013-11-27 15:00:00,43.4,16.0,30.25,SE,143,0.0,4.0,33,0.00,,,0.09,weatherlink.com 1.10,2013-11-27 22:00:00,
2013-11-27 15:15:00,42.7,16.0,30.25,SE,143,0.0,4.0,34,0.00,,,0.09,weatherlink.com 1.10,2013-11-27 22:15:00,
2013-11-27 15:30:00,41.8,18.0,30.24,SE,143,0.0,3.0,39,0.00,,,0.09,weatherlink.com 1.10,2013-11-27 22:30:00,
2013-11-27 15:45:00,41.2,17.0,30.24,SE,143,0.0,2.0,38,0.00,,,0.09,weatherlink.com 1.10,2013-11-27 22:45:00,
2013-11-27 16:00:00,40.3,20.0,30.24,SE,143,0.0,1.0,44,0.00,,,0.09,weatherlink.com 1.10,2013-11-27 23:00:00,
2013-11-27 16:15:00,37.3,21.0,30.24,SE,143,0.0,1.0,53,0.00,,,0.09,weatherlink.com 1.10,2013-11-27 23:15:00,
2013-11-27 16:30:00,34.9,20.0,30.24,SE,143,0.0,2.0,54,0.00,,,0.09,weatherlink.com 1.10,2013-11-27 23:30:00,
2013-11-27 16:45:00,33.7,17.0,30.25,SE,143,0.0,1.0,51,0.00,,,0.09,weatherlink.com 1.10,2013-11-27 23:45:00,
2013-11-27 17:00:00,31.8,18.0,30.25,SE,143,0.0,0.0,57,0.00,,,0.09,weatherlink.com 1.10,2013-11-28 00:00:00,
2013-11-27 17:15:00,30.5,18.0,30.26,SE,143,0.0,1.0,59,0.00,,,0.09,weatherlink.com 1.10,2013-11-28 00:15:00,
2013-11-27 17:30:00,29.6,19.0,30.26,SE,143,1.0,1.0,64,0.00,,,0.09,weatherlink.com 1.10,2013-11-28 00:30:00,
2013-11-27 17:45:00,29.4,19.0,30.27,SE,143,0.0,1.0,65,0.00,,,0.09,weatherlink.com 1.10,2013-11-28 00:45:00,
2013-11-27 18:00:00,28.9,18.0,30.27,SE,143,0.0,1.0,63,0.00,,,0.09,weatherlink.com 1.10,2013-11-28 01:00:00,
2013-11-27 18:15:00,28.9,17.0,30.27,SE,143,0.0,0.0,62,0.00,,,0.09,weatherlink.com 1.10,2013-11-28 01:15:00,
2013-11-27 18:30:00,27.8,18.0,30.27,SE,143,0.0,1.0,67,0.00,,,0.09,weatherlink.com 1.10,2013-11-28 01:30:00,
2013-11-27 18:45:00,27.3,18.0,30.27,SE,143,0.0,1.0,69,0.00,,,0.09,weatherlink.com 1.10,2013-11-28 01:45:00,
2013-11-27 19:00:00,27.1,17.0,30.27,SE,143,0.0,1.0,67,0.00,,,0.09,weatherlink.com 1.10,2013-11-28 02:00:00,
2013-11-27 19:15:00,26.6,18.0,30.27,SE,143,0.0,0.0,69,0.00,,,0.09,weatherlink.com 1.10,2013-11-28 02:15:00,
2013-11-27 19:30:00,26.8,18.0,30.27,SE,143,0.0,1.0,69,0.00,,,0.09,weatherlink.com 1.10,2013-11-28 02:30:00,
2013-11-27 19:45:00,27.0,18.0,30.27,SE,143,0.0,2.0,69,0.00,,,0.09,weatherlink.com 1.10,2013-11-28 02:45:00,
2013-11-27 20:00:00,26.8,18.0,30.27,SE,143,0.0,1.0,70,0.00,,,0.09,weatherlink.com 1.10,2013-11-28 03:00:00,
2013-11-27 20:15:00,26.7,18.0,30.27,SE,143,0.0,0.0,69,0.00,,,0.09,weatherlink.com 1.10,2013-11-28 03:15:00,
2013-11-27 20:30:00,26.5,18.0,30.27,SE,143,0.0,0.0,70,0.00,,,0.09,weatherlink.com 1.10,2013-11-28 03:30:00,
2013-11-27 20:45:00,26.6,17.0,30.27,SE,143,0.0,0.0,68,0.00,,,0.09,weatherlink.com 1.10,2013-11-28 03:45:00,
2013-11-27 21:00:00,26.2,17.0,30.27,SE,143,0.0,0.0,69,0.00,,,0.09,weatherlink.com 1.10,2013-11-28 04:00:00,
2013-11-27 21:15:00,25.9,17.0,30.27,SE,143,0.0,0.0,69,0.00,,,0.09,weatherlink.com 1.10,2013-11-28 04:15:00,
2013-11-27 21:30:00,25.2,17.0,30.28,SE,143,0.0,1.0,71,0.00,,,0.09,weatherlink.com 1.10,2013-11-28 04:30:00,
2013-11-27 21:45:00,25.5,17.0,30.28,SE,143,0.0,0.0,71,0.00,,,0.09,weatherlink.com 1.10,2013-11-28 04:45:00,
2013-11-27 22:00:00,24.6,17.0,30.28,SE,143,0.0,0.0,72,0.00,,,0.09,weatherlink.com 1.10,2013-11-28 05:00:00,
2013-11-27 22:15:00,24.9,16.0,30.28,SE,143,0.0,0.0,70,0.00,,,0.09,weatherlink.com 1.10,2013-11-28 05:15:00,
2013-11-27 22:30:00,24.0,17.0,30.28,SE,143,0.0,0.0,73,0.00,,,0.09,weatherlink.com 1.10,2013-11-28 05:30:00,
2013-11-27 22:45:00,23.6,16.0,30.28,SE,143,0.0,0.0,73,0.00,,,0.09,weatherlink.com 1.10,2013-11-28 05:45:00,
2013-11-27 23:00:00,23.2,16.0,30.29,SE,143,0.0,0.0,73,0.00,,,0.09,weatherlink.com 1.10,2013-11-28 06:00:00,
2013-11-27 23:15:00,22.7,15.0,30.29,SE,143,0.0,0.0,73,0.00,,,0.09,weatherlink.com 1.10,2013-11-28 06:15:00,
2013-11-27 23:30:00,22.2,16.0,30.29,SE,143,0.0,0.0,76,0.00,,,0.09,weatherlink.com 1.10,2013-11-28 06:30:00,
2013-11-27 23:45:00,21.5,16.0,30.29,SE,143,0.0,0.0,78,0.00,,,0.09,weatherlink.com 1.10,2013-11-28 06:45:00,